Погода в Курске

Хотите узнать прогноз погоды в Курске? Тогда Вам сюда: Погода в Курске

Поиск расширенной информации на нашем сайте:

Полезная информация:

Новости сайта



02.01.2020
Опубликован Долгосрочный прогноз погоды по городам России и ближнего зарубежья на январь 2020 года.
Карты: Прогноз на январь и февраль 2020 года, Сравнение прогнозируемой аномалии приземной температуры воздуха на январь 2020 года по разным моделям.




Погода в Курске - сегодня

Время (UTC), дата Ветер
(°,м/с) 
Видим.   Явления Облачность Т
(°С)
Тd
(°С)
f(%) Тe
(°С)
Pmin
(гПа)
dP
(гПа)
Po
(мм)
O2
(г/м3)
Тmin Tmax R s Состояние
почвы
00 19.01.20 230 (ЮЗ) 0500 м  туман  ?/?  
-3.2 -4 94 -4  1029.5  0.2  748  306           
03 19.01.20 240 (ЮЗ) 0200 м  переохл. туман  ?/?  
-3.7 -4.6 93 -6  1029.4  -0.2  748  306  -3.8         
06 19.01.20 270 (З) 0200 м  переохл. туман  ?/?  
-3.6 -4.5 93 -3  1030.4  0.9  749  306  -3.8      равномерный
мокрый или
старый снег
100% 
09 19.01.20 230 (ЮЗ) 0500 м  переохл. туман  ?/?  
-3.2 -4.1 93 -3  1030.9  0.6  749  306           
12 19.01.20 250 (З) 0500 м  переохл. туман  ?/?  
-3.2 -4.1 93 -4  1030.9  0.1  749  306           
15 19.01.20 280 (З) 0500 м  переохл. туман  ?/?  
-3.2 -4 94 -3  1032.3  1.2  750  306           
18 19.01.20 290 (З) 1000 м  дымка{туман}  10/10 300 м 
[St]
-3.6 -4.4 94 -5  1033.1  0.7  751  307    -3       
21 19.01.20 290 (З) 2000 м  дымка  10/10 300 м 
[St]
-4.1 -5 93 -5  1034  0.8  752  308           
00 20.01.20 300 (СЗ) 4000 м  дымка  10/10 300 м 
[St]
-3.8 -4.7 93 -3  1034.4  0.4  752  308           
03 20.01.20 270 (З) 4000 м  слаб. ливневой снег  10/10 600 м кучево-дожд. 
[Cb cap]
-3.4 -4.3 93 -5  1034.3  0.1  752  307  -4.1    0.0     
06 20.01.20 280 (З) 4000 м  дымка{ливн. осадки}  10/10 600 м 
[Sc diur, vesp]
-2.6 -3.4 94 -2  1034.3  0.1  752  306  -4.1    0.0  равномерный
сухой снег
100% 
09 20.01.20 280 (З) 4000 м  дымка  10/10 600 м 
[Sc]
-1.2 -2 94 -2  1033.8  -0.3  752  304           
12 20.01.20 280 (З) 10 км  в посл. час ливневой снег  10/10 600 м 
[Sc diur, vesp]
-0.2 -1.5 91 -2  1032.5  -1.1  751  303           
15 20.01.20 290 (З) 10 км    10/10 600 м 
[Sc diur, vesp]
-0.2 -2.1 87 -1  1032.5  0.1  751  303      0.0     
18 20.01.20 290 (З) 10 км    10/10 600 м 
[Sc]
+0 -2.5 83 -2  1031.7  -0.7  750  303    +0.1  0.0     
21 20.01.20 280 (З) 10 км    10/10 600 м 
[Sc]
-0.1 -3.2 80 -2  1030.2  -1.5  749  302           
00 21.01.20 270 (З) 4{10}  10 км    10/10 600 м 
[Sc]
-0.4 -3.6 79 -3  1028.8  -1.5  748  302           
03 21.01.20 270 (З) 10 км    10/10 600 м 
[Sc]
-0.8 -3.3 83 -3  1026.3  -2.5  746  302  -0.9         
06 21.01.20 260 (З) 10 км  слаб. ливневой снег  10/10 600 м кучево-дожд. 
[Cb cap]
-0.7 -2.6 87 -3  1023.2  -2.4  744  301  -0.9    0.0  равномерный
сухой снег
100% 
09 21.01.20 270 (З) 5-10{12}  10 км  {ливн. осадки}  10/10 600 м 
[Sc]
+0 -2.6 83 -3  1020.6  -3  742  299           
12 21.01.20 260 (З) 5-10{12}  10 км  {ливн. осадки}  10/10 600 м 
[Sc]
-0.1 -2.7 83 -3  1017.7  -2.9  740  299           
15 21.01.20 260 (З) 5-11{14}  10 км    10/10 600 м 
[Sc]
-0.2 -2.1 87 -3  1015.5  -2.1  738  298      0.0     
18 21.01.20 280 (З) 4-10{12}  10 км  в посл. час ливневой дождь  10/10 600 м кучево-дожд. 
[Cb cap]
+0.3 -1 91 -2  1014.2  -1.2  738  297    +0.3  0.0     
21 21.01.20 270 (З) 4{10}  4000 м  слаб. ливневой дождь  10/10 600 м кучево-дожд. 
[Cb cap]
+0.9 -0.2 92 -1  1011.9  -2.1  736  296           
00 22.01.20 270 (З) 4{13}  10 км  {ливн. осадки}  10/10 600 м 
[Sc]
+1.9 +0.4 90 1010.6  -1.2  735  294           
Время (UTC), дата Ветер
(°,м/с) 
Видим.   Явления Облачность Т
(°С)
Тd
(°С)
f(%) Тe
(°С)
Pmin
(гПа)
dP
(гПа)
Po
(мм)
O2
(г/м3)
Тmin Tmax R s Состояние
почвы

Для получения пояснительной информации подведите курсор к названию столбца.

ПОГОДА в Курске - архив

Всё, что Вы хотите узнать о погоде в Курске - удобно и подробно!

Выберите нужную дату (начиная с 1 января 2019* года) и нажмите кнопку "Найти".
Будут отображены архивные сводки погоды по пункту Курск, начиная с указанной даты.


Отображать данные в формате CSV (для использования в таблицах Excel)


Внимание! Наш архив погоды предназначен исключительно для личного некоммерческого использования в познавательных целях. Если Вам необходимы официальные справки о состоянии погоды (для производственных, юридических, коммерческих и т.п. целей), обращайтесь в органы Росгидромета.

*Примечание: данная дата относится к архиву по метеостанциям СССР (Россия, СНГ, Балтия).
Архив по метеостанциям Зарубежной Европы и Азии (кроме Китая) хранится 10 дней, по другим регионам земного шара (Китай, Африка, Америка, Австралия, Океания) - 1 день.

Курск - район местоположения метеостанции


Название, широта, долгота, высота метеостанции:
Курск 51.8°ш. 36.2°д. 247 м над ур. моря [Российская Федерация]

Дополнительная информация

В oтличие oт бoльшинства пoгoдных сайтoв мы публикуем пoдрoбную метеoинфoрмацию в детальнoм прoфессиoнальнoм фoрмате.

Характеристики температуры и влажнoсти вoздуха измеряются на высoте 2 м в тени вдали oт зданий и деревьев.
Скoрoсть ветра измеряется на высoте 10 м (на урoвне рoста челoвека скoрoсть ветра ниже в 1.5-2 раза). Если метеoстанция нахoдится в гoрoде или в лесу, тo скoрoсть ветра занижена на 2-4 м/с пo сравнению с oткрытым местoм. Скoрoсть ветра над акватoриями крупных рек и oзёр, а также на вершинах хoлмoв на 2-5 м/с выше, чем в oбычных услoвиях.
Атмoсфернoе давление в разных тoчках местнoсти мoжет значительнo oтличаться oт давления на метеoстанции, в зависимoсти oт услoвий рельефа (при пoдъёме на 10 м давление пoнижается примернo на 1 мм рт.ст.).